Change the Weather History Date:

Monday, December 2, 2013

  Actual Average Record
Temperature  
Mean Temperature 63 °F 44 °F  
Max Temperature 73 °F 50 °F 73 °F (2013)
Min Temperature 53 °F 38 °F 25 °F (1968)
Degree Days  
Heating Degree Days 2 21  
Month to date heating degree days 11 42  
Since 1 July heating degree days 565 821  
Cooling Degree Days 0 0  
Month to date cooling degree days 0 0  
Year to date cooling degree days 1565 998  
Growing Degree Days 13 (Base 50)    
Moisture  
Dew Point 13 °F    
Average Humidity 19    
Maximum Humidity 29    
Minimum Humidity 9    
Precipitation  
Precipitation 0.00 in 0.04 in 1.49 in (2014)
Month to date precipitation 0.00 0.08  
Year to date precipitation 3.61 10.16  
Since 1 July precipitation 0.70 1.68  
Sea Level Pressure  
Sea Level Pressure 30.02 in    
Wind  
Wind Speed 11 mph (NNW)    
Max Wind Speed 26 mph    
Max Gust Speed 31 mph    
Visibility 10 miles    
Events      
T = Trace of Precipitation, MM = Missing Value Source: NWS Daily Summary

Daily Weather History Graph

Daily Weather History Graph

Search for Another Location

Airport or City:

Trip Planner

Search our weather history database for the weather conditions in past years. The results will help you decide how hot, cold, wet, or windy it might be!

Date:

Astronomy

Dec. 02, 2013 Rise Set
Actual Time 6:45 AM PST 4:43 PM PST
Civil Twilight 6:17 AM PST 5:11 PM PST
Nautical Twilight 5:46 AM PST 5:42 PM PST
Astronomical Twilight 5:15 AM PST 6:13 PM PST
Moon 6:16 AM PST (12/2) 4:50 PM PST (12/2)
Length of Visible Light 10h 54m
Length of Day
9h 58m
Waning Crescent, 0% of the Moon is Illuminated
Dec 2
Waning Crescent
Dec 2
New
Dec 9
First Quarter
Dec 17
Full
Dec 25
Last Quarter

Hourly Weather History & Observations

Time (PST) Temp. Dew Point Humidity Pressure Visibility Wind Dir Wind Speed Gust Speed Precip Events Conditions
12:48 AM 55.0 °F 15.1 °F 21% 30.15 in 10.0 mi ENE 9.2 mph - N/A   Clear
1:48 AM 55.9 °F 14.0 °F 19% 30.14 in 10.0 mi NE 4.6 mph - N/A   Clear
2:48 AM 57.0 °F 14.0 °F 18% 30.12 in 10.0 mi Calm Calm - N/A   Clear
3:48 AM 54.0 °F 16.0 °F 22% 30.11 in 10.0 mi NE 6.9 mph - N/A   Clear
4:48 AM 55.0 °F 17.1 °F 23% 30.12 in 10.0 mi NNE 4.6 mph - N/A   Clear
5:48 AM 57.0 °F 15.1 °F 19% 30.12 in 10.0 mi NNE 4.6 mph - N/A   Clear
6:48 AM 55.9 °F 15.1 °F 20% 30.14 in 10.0 mi North 9.2 mph - N/A   Clear
7:48 AM 57.9 °F 17.1 °F 20% 30.12 in 10.0 mi NNW 12.7 mph - N/A   Clear
8:48 AM 64.9 °F 10.9 °F 12% 30.11 in 10.0 mi Calm Calm - N/A   Clear
9:48 AM 66.0 °F 12.0 °F 12% 30.08 in 10.0 mi NNW 8.1 mph - N/A   Clear
10:48 AM 69.1 °F 12.9 °F 11% 30.07 in 10.0 mi NNW 9.2 mph - N/A   Clear
11:48 AM 70.0 °F 14.0 °F 12% 30.06 in 10.0 mi Variable 3.5 mph - N/A   Clear
12:48 PM 71.1 °F 10.9 °F 10% 30.03 in 10.0 mi NW 16.1 mph 21.9 mph N/A   Clear
1:48 PM 69.1 °F 12.0 °F 11% 29.99 in 10.0 mi NNW 18.4 mph 26.5 mph N/A   Clear
2:48 PM 66.9 °F 12.9 °F 12% 29.97 in 10.0 mi NNW 23.0 mph 29.9 mph N/A   Clear
3:48 PM 64.9 °F 12.9 °F 13% 29.97 in 10.0 mi NW 17.3 mph 24.2 mph N/A   Clear
4:48 PM 63.0 °F 12.0 °F 14% 29.95 in 10.0 mi NW 18.4 mph 25.3 mph N/A   Clear
5:48 PM 63.0 °F 10.0 °F 13% 29.94 in 10.0 mi WNW 12.7 mph - N/A   Clear
6:48 PM 61.0 °F 10.0 °F 13% 29.95 in 10.0 mi West 10.4 mph - N/A   Clear
7:48 PM 60.1 °F 9.0 °F 13% 29.93 in 10.0 mi NW 11.5 mph - N/A   Clear
8:48 PM 60.1 °F 10.9 °F 14% 29.90 in 10.0 mi NW 20.7 mph 24.2 mph N/A   Clear
9:48 PM 59.0 °F 7.0 °F 13% 29.88 in 10.0 mi WNW 10.4 mph 19.6 mph N/A   Clear
10:48 PM 53.1 °F 23.0 °F 31% 29.89 in 10.0 mi NNW 11.5 mph - N/A   Clear
11:48 PM 55.0 °F 17.1 °F 23% 29.86 in 10.0 mi NW 11.5 mph - N/A   Clear